Weather History for Moose Lake, MN

Change the Weather History Date:

Saturday, February 9, 2013

  Actual Average Record
Temperature  
Mean Temperature 20 °F -  
Max Temperature 30 °F 24 °F 49 °F (1991)
Min Temperature 10 °F -3 °F -38 °F (1951)
Degree Days  
Heating Degree Days 45    
Moisture  
Dew Point 18 °F    
Average Humidity 74    
Maximum Humidity 80    
Minimum Humidity 64    
Precipitation  
Precipitation 0.00 in - - ()
Sea Level Pressure  
Sea Level Pressure 30.01 in    
Wind  
Wind Speed 1 mph (SSW)    
Max Wind Speed 12 mph    
Max Gust Speed 16 mph    
Visibility 7 miles    
Events      
Averages and records for this station are not official NWS values.
T = Trace of Precipitation, MM = Missing Value Source: NWS Daily Summary

Daily Weather History Graph

Daily Weather History Graph

Search for Another Location

Airport:

Trip Planner

Search our weather history database for the weather conditions in past years. The results will help you decide how hot, cold, wet, or windy it might be!

Date:

Astronomy

Feb. 09, 2013 Rise Set
Actual Time 7:23 AM CST 5:28 PM CST
Civil Twilight 6:51 AM CST 5:59 PM CST
Nautical Twilight 6:16 AM CST 6:35 PM CST
Astronomical Twilight 5:41 AM CST 7:10 PM CST
Moon 6:34 AM CST (2/9) 5:13 PM CST (2/9)
Length of Visible Light 11h 07m
Length of Day
10h 04m
Waning Crescent, 0% of the Moon is Illuminated
Feb 9
Waning Crescent
Feb 10
New
Feb 17
First Quarter
Feb 25
Full
Mar 4
Last Quarter

Hourly Weather History & Observations

Time (CST) Temp. Windchill Dew Point Humidity Pressure Visibility Wind Dir Wind Speed Gust Speed Precip Events Conditions
12:12 AM 12.2 °F - 5.0 °F 73% 30.18 in 10.0 mi Calm Calm - N/A   Mostly Cloudy
12:32 AM 10.4 °F - 3.2 °F 73% 30.17 in 10.0 mi Calm Calm - N/A   Scattered Clouds
12:52 AM 14.0 °F - 5.0 °F 67% 30.17 in 10.0 mi Calm Calm - N/A   Mostly Cloudy
1:12 AM 15.8 °F - 6.8 °F 68% 30.16 in 10.0 mi Calm Calm - N/A   Overcast
1:32 AM 19.4 °F - 10.4 °F 68% 30.16 in 10.0 mi Calm Calm - N/A   Overcast
1:52 AM 19.4 °F - 10.4 °F 68% 30.15 in 10.0 mi Calm Calm - N/A   Overcast
2:12 AM 19.4 °F - 10.4 °F 68% 30.15 in 10.0 mi Calm Calm - N/A   Overcast
2:32 AM 19.4 °F - 10.4 °F 68% 30.13 in 10.0 mi Calm Calm - N/A   Overcast
2:52 AM 19.4 °F - 10.4 °F 68% 30.13 in 10.0 mi Calm Calm - N/A   Overcast
3:12 AM 19.4 °F - 10.4 °F 68% 30.11 in 10.0 mi Calm Calm - N/A   Overcast
3:32 AM 19.4 °F 9.5 °F 12.2 °F 74% 30.10 in 10.0 mi SSE 8.1 mph - N/A   Overcast
3:52 AM 19.4 °F - 12.2 °F 74% 30.08 in 10.0 mi Calm Calm - N/A   Overcast
4:12 AM 19.4 °F - 12.2 °F 74% 30.08 in 10.0 mi Calm Calm - N/A   Overcast
4:32 AM 21.2 °F - 12.2 °F 68% 30.08 in 10.0 mi Calm Calm - N/A   Overcast
4:52 AM 21.2 °F - 12.2 °F 68% 30.08 in 10.0 mi Calm Calm - N/A   Overcast
5:12 AM 21.2 °F - 14.0 °F 74% 30.09 in 10.0 mi Calm Calm - N/A   Overcast
5:32 AM 21.2 °F - 14.0 °F 74% 30.08 in 10.0 mi Calm Calm - N/A   Overcast
5:52 AM 21.2 °F - 14.0 °F 74% 30.07 in 10.0 mi Calm Calm - N/A   Overcast
6:12 AM 21.2 °F - 14.0 °F 74% 30.06 in 10.0 mi Calm Calm - N/A   Overcast
6:32 AM 21.2 °F - 14.0 °F 74% 30.05 in 10.0 mi Calm Calm - N/A   Overcast
6:52 AM 21.2 °F - 15.8 °F 80% 30.04 in 10.0 mi Calm Calm - N/A   Overcast
7:12 AM 23.0 °F - 15.8 °F 74% 30.03 in 10.0 mi Calm Calm - N/A   Overcast
7:32 AM 23.0 °F - 15.8 °F 74% 30.04 in 10.0 mi Calm Calm - N/A   Overcast
7:52 AM 23.0 °F - 15.8 °F 74% 30.04 in 7.0 mi Calm Calm - N/A   Overcast
8:12 AM 23.0 °F - 17.6 °F 80% 30.04 in 7.0 mi Calm Calm - N/A   Overcast
8:32 AM 23.0 °F - 17.6 °F 80% 30.04 in 7.0 mi Calm Calm - N/A   Overcast
8:52 AM 23.0 °F - 17.6 °F 80% 30.04 in 7.0 mi Calm Calm - N/A   Overcast
9:12 AM 23.0 °F 14.7 °F 17.6 °F 80% 30.04 in 5.0 mi South 6.9 mph - N/A   Haze
9:32 AM 24.8 °F - 17.6 °F 74% 30.04 in 5.0 mi Calm Calm - N/A   Haze
9:52 AM 24.8 °F - 17.6 °F 74% 30.04 in 5.0 mi Calm Calm - N/A   Haze
10:12 AM 26.6 °F - 17.6 °F 69% 30.03 in 5.0 mi Calm Calm - N/A   Haze
10:32 AM 26.6 °F - 19.4 °F 74% 30.03 in 5.0 mi Calm Calm - N/A   Haze
10:52 AM 26.6 °F - 19.4 °F 74% 30.02 in 5.0 mi Calm Calm - N/A   Haze
11:12 AM 28.4 °F 24.6 °F 19.4 °F 69% 30.03 in 5.0 mi SSW 3.5 mph 16.1 mph N/A   Haze
11:32 AM 28.4 °F 19.1 °F 19.4 °F 69% 30.02 in 5.0 mi SSW 10.4 mph - N/A   Haze
11:52 AM 28.4 °F - 19.4 °F 69% 30.02 in 7.0 mi Calm Calm - N/A   Overcast
12:12 PM 28.4 °F 19.7 °F 19.4 °F 69% 30.01 in 7.0 mi SSW 9.2 mph - N/A   Overcast
12:32 PM 28.4 °F 18.5 °F 19.4 °F 69% 29.99 in 7.0 mi SSW 11.5 mph - N/A   Overcast
12:52 PM 28.4 °F 21.2 °F 19.4 °F 69% 29.99 in 7.0 mi SSW 6.9 mph - N/A   Overcast
1:12 PM 28.4 °F - 19.4 °F 69% 29.98 in 7.0 mi Calm Calm - N/A   Overcast
1:32 PM 28.4 °F - 19.4 °F 69% 29.97 in 10.0 mi Calm Calm - N/A   Overcast
1:52 PM 28.4 °F - 19.4 °F 69% 29.97 in 10.0 mi Calm Calm - N/A   Overcast
2:12 PM 28.4 °F - 19.4 °F 69% 29.97 in 10.0 mi Calm Calm - N/A   Overcast
2:32 PM 28.4 °F 19.1 °F 19.4 °F 69% 29.96 in 10.0 mi SSW 10.4 mph - N/A   Overcast
2:52 PM 30.2 °F 22.6 °F 19.4 °F 64% 29.95 in 10.0 mi SW 8.1 mph - N/A   Overcast
3:12 PM 30.2 °F - 19.4 °F 64% 29.95 in 10.0 mi Calm Calm - N/A   Overcast
3:32 PM 30.2 °F 22.6 °F 19.4 °F 64% 29.96 in 7.0 mi South 8.1 mph - N/A   Overcast
3:52 PM 30.2 °F - 21.2 °F 69% 29.95 in 5.0 mi Calm Calm - N/A   Haze
4:12 PM 28.4 °F - 21.2 °F 74% 29.95 in 4.0 mi Calm Calm - N/A   Haze
4:32 PM 28.4 °F - 21.2 °F 74% 29.95 in 4.0 mi Calm Calm - N/A   Haze
4:52 PM 28.4 °F - 21.2 °F 74% 29.94 in 4.0 mi Calm Calm - N/A   Haze
5:12 PM 28.4 °F - 21.2 °F 74% 29.94 in 3.0 mi Calm Calm - N/A   Haze
5:32 PM 28.4 °F - 23.0 °F 80% 29.94 in 4.0 mi Calm Calm - N/A   Haze
5:52 PM 28.4 °F - 23.0 °F 80% 29.95 in 4.0 mi Calm Calm - N/A   Haze
6:12 PM 28.4 °F - 23.0 °F 80% 29.95 in 4.0 mi Calm Calm - N/A   Haze
6:32 PM 28.4 °F - 23.0 °F 80% 29.95 in 4.0 mi Calm Calm - N/A   Haze
6:52 PM 28.4 °F - 23.0 °F 80% 29.95 in 4.0 mi Calm Calm - N/A   Haze
7:12 PM 28.4 °F - 23.0 °F 80% 29.95 in 4.0 mi Calm Calm - N/A   Haze
7:32 PM 28.4 °F - 23.0 °F 80% 29.95 in 5.0 mi Calm Calm - N/A   Haze
7:52 PM 28.4 °F - 23.0 °F 80% 29.95 in 4.0 mi Calm Calm - N/A   Haze
8:12 PM 28.4 °F - 23.0 °F 80% 29.95 in 4.0 mi Calm Calm - N/A   Haze
8:32 PM 28.4 °F - 23.0 °F 80% 29.94 in 4.0 mi Calm Calm - N/A   Haze
8:52 PM 28.4 °F - 23.0 °F 80% 29.94 in 4.0 mi Calm Calm - N/A   Haze
9:12 PM 28.4 °F - 23.0 °F 80% 29.94 in 4.0 mi Calm Calm - N/A   Haze
9:32 PM 28.4 °F - 23.0 °F 80% 29.92 in 4.0 mi Calm Calm - N/A   Haze
9:52 PM 28.4 °F - 23.0 °F 80% 29.92 in 4.0 mi Calm Calm - N/A   Haze
10:12 PM 28.4 °F - 23.0 °F 80% 29.93 in 4.0 mi Calm Calm - N/A   Haze
10:32 PM 28.4 °F - 23.0 °F 80% 29.94 in 4.0 mi Calm Calm - N/A   Haze
10:52 PM 28.4 °F - 23.0 °F 80% 29.93 in 3.0 mi Calm Calm - N/A   Haze
11:12 PM 28.4 °F - 23.0 °F 80% 29.92 in 3.0 mi Calm Calm - N/A   Haze
11:32 PM 28.4 °F - 23.0 °F 80% 29.92 in 3.0 mi Calm Calm - N/A   Haze
11:52 PM 28.4 °F - 23.0 °F 80% 29.92 in 3.0 mi Calm Calm - N/A   Haze